Details for WeGo Airways at EGGW




Go Back


Latest METAR
Local Time

EGGW 220920Z AUTO 22006KT 200V260 9999 NCD 13/08 Q1019
22/09/2018, 10:36:06

Description
Results
WeGo Airways Logo
Number of Pilots based at EGGW
1 Pilots Based here
Number of WeGo Airways Flights Departed from EGGW
2 Flights Departed
Number of WeGo Airways Flights Arrived at EGGW
1 Flights Arrived
Number of WeGo Airways Schedules Departing from EGGW
0 Schedules
Number of WeGo Airways Schedules Arriving at EGGW
0 Schedules
Number of WeGo Airways Schedules Departing from EGGW availible today
0 Schedules Today
Number of WeGo Airways Schedules Arriving at EGGW availible today
0 Schedules Today
Average Landing Rate at EGGW
-198 fpm
WeGo Airways Average Landing Rate at EGGW
-22 fpm
Total Fuel Purchased at EGGW by WeGo Airways
1,149.40 kgs / 2,533.97 lbs

Pilots Based at EGGW


Pilot ID
Pilot Name
Pilot Rank
No. of Flights
No. of Flying Hours
Jorgen Kambskard
109
319.12
Content